FW9648 Weather Reports


Display with metric or nautical units.
time (UTC)temp
F
wind
direction
speed
MPH
gust
MPH
rain 1hr
in
rain 24hr
in
rain mn
in
humidity
%
barometer
mb
20260510054948 52 172 0.0 2.0 0.00 0.00 0.00 92 1010.2
20260510054443 52 270 0.0 2.0 0.00 0.00 0.00 92 1010.2
20260510053938 53 90 0.0 2.0 0.00 0.00 0.00 92 1010.3
20260510053434 53 0 0.0 2.0 0.00 0.00 0.00 91 1010.2
20260510052930 53 106 0.0 2.0 0.00 0.00 0.00 91 1010.1
20260510052426 53 7 0.0 3.0 0.00 0.00 0.00 91 1010.0
20260510051923 53 121 2.0 2.0 0.00 0.00 0.00 91 1010.2
20260510051419 54 337 0.0 0.0 0.00 0.00 0.00 90 1010.1
20260510050916 54 144 2.0 2.0 0.00 0.00 0.00 90 1010.0
20260510050413 54 140 0.0 2.0 0.00 0.00 0.00 90 1010.2
20260510045910 54 130 2.0 2.0 0.00 0.00 0.00 90 1010.1
20260510045407 55 99 0.0 2.0 0.00 0.00 0.00 90 1010.0
20260510044903 55 135 2.0 3.0 0.00 0.00 0.00 90 1010.0
20260510044400 56 225 0.0 4.0 0.00 0.00 0.00 90 1010.3
20260510043857 56 263 0.0 0.0 0.00 0.00 0.00 91 1010.2
20260510043353 56 166 0.0 1.0 0.00 0.00 0.00 91 1010.0
20260510042851 56 203 1.0 2.0 0.00 0.00 0.00 92 1010.0
20260510042347 55 180 1.0 3.0 0.00 0.00 0.00 93 1010.3
20260510041843 55 243 1.0 2.0 0.00 0.00 0.00 92 1010.2
20260510041340 55 254 2.0 2.0 0.00 0.00 0.00 92 1010.1
20260510040838 55 203 0.0 2.0 0.00 0.00 0.00 92 1010.2
20260510040334 55 113 2.0 2.0 0.00 0.00 0.00 91 1010.3
20260510035830 55 126 0.0 3.0 0.00 0.00 0.00 91 1010.1
20260510035326 55 165 0.0 1.0 0.00 0.00 0.00 91 1010.1
20260510034822 55 126 1.0 2.0 0.00 0.00 0.00 90 1010.1
20260510034320 55 145 0.0 0.0 0.00 0.00 0.00 90 1010.1
20260510033816 55 270 1.0 1.0 0.00 0.00 0.00 90 1010.3
20260510033313 56 354 0.0 0.0 0.00 0.00 0.00 89 1010.2
20260510032809 56 111 0.0 0.0 0.00 0.00 0.00 89 1010.2
20260510032306 56 120 0.0 2.0 0.00 0.00 0.00 89 1010.0
20260510031802 57 128 2.0 2.0 0.00 0.00 0.00 89 1009.9
20260510031257 56 120 0.0 1.0 0.00 0.00 0.00 88 1010.1
20260510030751 57 270 0.0 0.0 0.00 0.00 0.00 88 1009.8
20260510030248 57 106 0.0 0.0 0.00 0.00 0.00 88 1009.8
20260510025745 57 106 0.0 0.0 0.00 0.00 0.00 87 1010.0
20260510025243 57 209 0.0 0.0 0.00 0.00 0.00 87 1009.8
20260510024740 58 209 0.0 1.0 0.00 0.00 0.00 87 1009.6
20260510024236 58 180 0.0 3.0 0.00 0.00 0.00 87 1009.7
20260510023732 58 222 3.0 3.0 0.00 0.00 0.00 87 1009.5
20260510023224 58 218 2.0 3.0 0.00 0.00 0.00 87 1009.5
20260510022720 58 212 2.0 2.0 0.00 0.00 0.00 86 1009.6
20260510022220 59 258 2.0 2.0 0.00 0.00 0.00 85 1009.2
20260510021715 59 228 2.0 2.0 0.00 0.00 0.00 85 1009.2
20260510021213 59 237 0.0 2.0 0.00 0.00 0.00 84 1009.0
20260510020708 59 172 0.0 2.0 0.00 0.00 0.00 84 1009.2
20260510020203 59 126 0.0 3.0 0.00 0.00 0.00 84 1009.1
20260510015659 59 245 2.0 3.0 0.00 0.00 0.00 83 1009.1
20260510015156 60 239 2.0 3.0 0.00 0.00 0.00 83 1009.2
20260510014656 60 180 0.0 2.0 0.00 0.00 0.00 83 1008.9
20260510014153 60 235 2.0 3.0 0.00 0.00 0.00 82 1008.6
20260510013648 60 228 2.0 3.0 0.00 0.00 0.00 81 1008.7
20260510013144 60 247 2.0 2.0 0.00 0.00 0.00 81 1008.7
20260510012644 61 246 0.0 2.0 0.00 0.00 0.00 80 1008.6
20260510012140 61 249 0.0 2.0 0.00 0.00 0.00 79 1008.4
20260510011635 61 243 2.0 2.0 0.00 0.00 0.00 79 1008.5
20260510011131 62 240 1.0 2.0 0.00 0.00 0.00 78 1008.4
20260510010627 62 195 1.0 2.0 0.00 0.00 0.00 78 1008.3
20260510010124 62 225 3.0 3.0 0.00 0.00 0.00 78 1008.3
20260510005619 62 230 3.0 3.0 0.00 0.00 0.00 77 1008.1
20260510005117 62 236 2.0 3.0 0.00 0.00 0.00 77 1008.2
20260510004615 63 240 2.0 2.0 0.00 0.00 0.00 76 1008.2
20260510004113 63 270 0.0 2.0 0.00 0.00 0.00 75 1008.0
20260510003610 64 240 0.0 1.0 0.00 0.00 0.00 74 1007.9
20260510003106 64 243 0.0 2.0 0.00 0.00 0.00 73 1007.8
20260510002600 65 249 1.0 2.0 0.00 0.00 0.00 72 1007.8
20260510002057 65 220 0.0 2.0 0.00 0.00 0.00 72 1007.7
20260510001555 65 228 2.0 2.0 0.00 0.00 0.00 72 1007.5
20260510001054 66 245 2.0 3.0 0.00 0.00 0.00 72 1007.7
20260510000548 66 233 2.0 3.0 0.00 0.00 0.00 72 1007.5
20260510000046 66 231 2.0 3.0 0.00 0.00 0.00 71 1007.5
20260509235542 67 245 2.0 3.0 0.00 0.00 0.00 70 1007.7
20260509235038 67 232 2.0 3.0 0.00 0.00 0.00 68 1007.4
20260509234534 68 247 2.0 3.0 0.00 0.00 0.00 69 1007.3
20260509234033 68 246 2.0 2.0 0.00 0.00 0.00 68 1007.6
20260509233530 68 259 2.0 3.0 0.00 0.00 0.00 68 1007.5
20260509233027 68 248 3.0 3.0 0.00 0.00 0.00 68 1007.2
20260509232524 69 263 1.0 2.0 0.00 0.00 0.00 67 1007.3
20260509232020 70 255 3.0 3.0 0.00 0.00 0.00 65 1007.5
20260509231517 71 229 2.0 4.0 0.00 0.00 0.00 60 1007.5
20260509231015 72 213 2.0 3.0 0.00 0.00 0.00 59 1007.2
20260509230511 72 254 0.0 2.0 0.00 0.00 0.00 62 1007.4
20260509230008 73 3 0.0 3.0 0.00 0.00 0.00 58 1007.4
20260509225503 74 0 0.0 3.0 0.00 0.00 0.00 57 1007.1
20260509224959 74 274 3.0 3.0 0.00 0.00 0.00 55 1007.2
20260509224455 74 90 0.0 2.0 0.00 0.00 0.00 54 1007.4
20260509223952 74 105 0.0 5.0 0.00 0.00 0.00 54 1007.6
20260509223449 74 270 0.0 4.0 0.00 0.00 0.00 54 1007.4
20260509222946 75 106 1.0 6.0 0.00 0.00 0.00 53 1007.2
20260509222442 75 266 3.0 5.0 0.00 0.00 0.00 54 1007.2
20260509221938 75 103 1.0 7.0 0.00 0.00 0.00 52 1007.3
20260509221434 76 217 2.0 5.0 0.00 0.00 0.00 52 1007.4
20260509220930 75 246 3.0 7.0 0.00 0.00 0.00 53 1007.4
20260509220426 75 262 1.0 5.0 0.00 0.00 0.00 55 1007.5
20260509215923 77 234 0.0 2.0 0.00 0.00 0.00 51 1007.3
20260509215418 76 131 3.0 7.0 0.00 0.00 0.00 50 1007.4
20260509214916 76 87 3.0 5.0 0.00 0.00 0.00 52 1007.3
20260509214413 76 243 2.0 4.0 0.00 0.00 0.00 52 1007.2
20260509213910 76 189 2.0 4.0 0.00 0.00 0.00 53 1007.5
20260509213405 75 247 3.0 4.0 0.00 0.00 0.00 52 1007.2
20260509212903 75 337 1.0 4.0 0.00 0.00 0.00 52 1007.4
20260509212400 74 233 0.0 3.0 0.00 0.00 0.00 52 1007.2
20260509211856 74 261 0.0 3.0 0.00 0.00 0.00 52 1007.1
20260509211352 75 114 0.0 3.0 0.00 0.00 0.00 53 1007.0
20260509210849 74 162 2.0 7.0 0.00 0.00 0.00 52 1007.2
20260509210346 75 139 0.0 11.0 0.00 0.00 0.00 51 1007.1
20260509205846 76 278 0.0 5.0 0.00 0.00 0.00 50 1007.3
20260509205340 77 282 4.0 16.0 0.00 0.00 0.00 50 1007.1
20260509204838 76 242 5.0 12.0 0.00 0.00 0.00 49 1006.9
20260509204334 78 259 6.0 17.0 0.00 0.00 0.00 47 1006.9
20260509203830 77 105 3.0 12.0 0.00 0.00 0.00 48 1007.0
20260509203327 78 228 0.0 12.0 0.00 0.00 0.00 48 1006.9
20260509202823 76 159 6.0 11.0 0.00 0.00 0.00 49 1006.8
20260509202320 78 225 4.0 4.0 0.00 0.00 0.00 47 1006.9
20260509201819 77 131 9.0 10.0 0.00 0.00 0.00 47 1007.0
20260509201316 77 283 6.0 7.0 0.00 0.00 0.00 48 1006.7
20260509200813 77 127 0.0 15.0 0.00 0.00 0.00 49 1006.8
20260509200308 77 123 2.0 6.0 0.00 0.00 0.00 49 1006.8
20260509195804 77 158 4.0 6.0 0.00 0.00 0.00 50 1007.0
20260509195300 77 266 3.0 7.0 0.00 0.00 0.00 51 1007.1
20260509194759 76 160 1.0 9.0 0.00 0.00 0.00 52 1007.2
20260509194255 77 75 5.0 14.0 0.00 0.00 0.00 49 1007.2
20260509193752 77 247 3.0 7.0 0.00 0.00 0.00 49 1007.5
20260509193247 77 103 6.0 9.0 0.00 0.00 0.00 48 1007.4
20260509192743 76 228 4.0 9.0 0.00 0.00 0.00 49 1007.4
20260509192238 76 254 3.0 11.0 0.00 0.00 0.00 49 1007.3
20260509191734 77 213 5.0 7.0 0.00 0.00 0.00 47 1007.3
20260509191231 77 242 3.0 7.0 0.00 0.00 0.00 46 1007.5
20260509190727 78 117 2.0 3.0 0.00 0.00 0.00 49 1007.6
20260509190224 76 315 0.0 9.0 0.00 0.00 0.00 47 1007.9
20260509185721 76 325 3.0 7.0 0.00 0.00 0.00 50 1007.9
20260509185217 76 147 3.0 5.0 0.00 0.00 0.00 52 1007.9
20260509184715 75 258 6.0 14.0 0.00 0.00 0.00 48 1008.0
20260509184212 75 218 5.0 9.0 0.00 0.00 0.00 49 1008.0
20260509183708 74 239 4.0 11.0 0.00 0.00 0.00 49 1008.0
20260509183203 75 198 3.0 13.0 0.00 0.00 0.00 50 1008.1
20260509182659 74 123 3.0 13.0 0.00 0.00 0.00 51 1008.2
20260509182157 74 134 5.0 13.0 0.00 0.00 0.00 52 1008.4
20260509181655 75 134 5.0 9.0 0.00 0.00 0.00 53 1008.5
20260509181152 74 77 1.0 8.0 0.00 0.00 0.00 53 1008.8
20260509180649 73 232 5.0 11.0 0.00 0.00 0.00 53 1008.8
20260509180144 73 214 2.0 11.0 0.00 0.00 0.00 55 1009.0
20260509175641 73 242 7.0 10.0 0.00 0.00 0.00 55 1008.9
20260509175138 72 285 4.0 10.0 0.00 0.00 0.00 57 1008.9
20260509174633 73 176 0.0 6.0 0.00 0.00 0.00 60 1008.7
20260509174128 70 237 5.0 13.0 0.00 0.00 0.00 60 1009.1
20260509173625 72 231 6.0 16.0 0.00 0.00 0.00 59 1008.9
20260509173120 73 157 0.0 5.0 0.00 0.00 0.00 61 1009.3
20260509172618 72 245 6.0 9.0 0.00 0.00 0.00 59 1009.3
20260509172114 72 292 2.0 6.0 0.00 0.00 0.00 60 1009.2
20260509171609 71 237 3.0 13.0 0.00 0.00 0.00 60 1009.5
20260509171106 71 127 2.0 15.0 0.00 0.00 0.00 62 1009.5
20260509170602 72 191 5.0 9.0 0.00 0.00 0.00 60 1009.5
20260509170058 71 168 0.0 7.0 0.00 0.00 0.00 61 1009.5
20260509165557 70 113 8.0 13.0 0.00 0.00 0.00 61 1009.4
20260509165052 70 274 2.0 19.0 0.00 0.00 0.00 59 1009.4
20260509164549 70 286 2.0 14.0 0.00 0.00 0.00 63 1009.5
20260509164044 70 157 1.0 4.0 0.00 0.00 0.00 63 1009.6
20260509163543 68 10 3.0 5.0 0.00 0.00 0.00 63 1009.5
20260509163038 68 121 3.0 8.0 0.00 0.00 0.00 62 1009.6
20260509162535 68 260 5.0 11.0 0.00 0.00 0.00 62 1009.6
20260509162031 70 101 5.0 9.0 0.00 0.00 0.00 63 1009.7
20260509161527 69 275 2.0 11.0 0.00 0.00 0.00 61 1009.6
20260509161022 68 112 2.0 11.0 0.00 0.00 0.00 63 1009.7
20260509160518 67 213 6.0 14.0 0.00 0.00 0.00 63 1009.7
20260509160014 68 339 2.0 10.0 0.00 0.00 0.00 63 1009.9
20260509155510 68 226 5.0 6.0 0.00 0.00 0.00 63 1009.7
20260509155006 68 151 3.0 7.0 0.00 0.00 0.00 66 1009.8
20260509154503 67 95 0.0 6.0 0.00 0.00 0.00 64 1009.6
20260509154001 66 138 3.0 10.0 0.00 0.00 0.00 67 1010.0
20260509153457 65 348 1.0 13.0 0.00 0.00 0.00 68 1009.7
20260509152954 64 112 2.0 6.0 0.00 0.00 0.00 68 1010.0
20260509152450 63 243 3.0 7.0 0.00 0.00 0.00 68 1010.3
20260509151947 63 283 3.0 14.0 0.00 0.00 0.00 67 1010.2
20260509151443 63 150 9.0 10.0 0.00 0.00 0.00 68 1010.2
20260509150941 63 121 0.0 4.0 0.00 0.00 0.00 69 1010.3
20260509150438 62 261 0.0 9.0 0.00 0.00 0.00 69 1010.3
20260509145937 62 244 6.0 9.0 0.00 0.00 0.00 69 1010.5
20260509145437 62 131 9.0 9.0 0.00 0.00 0.00 68 1010.7
20260509144932 62 250 7.0 9.0 0.00 0.00 0.00 67 1010.7
20260509144430 62 148 2.0 5.0 0.00 0.00 0.00 68 1010.2
20260509143927 63 113 5.0 6.0 0.00 0.00 0.00 68 1010.0
20260509143424 61 273 3.0 8.0 0.00 0.00 0.00 70 1010.1
20260509142920 60 247 8.0 9.0 0.00 0.00 0.00 69 1010.2
20260509142417 60 220 0.0 7.0 0.00 0.00 0.00 70 1010.1
20260509141912 60 84 1.0 6.0 0.00 0.00 0.00 70 1010.3
20260509141410 59 132 4.0 12.0 0.00 0.00 0.00 70 1010.5
20260509140906 60 270 0.0 6.0 0.00 0.00 0.00 70 1010.6
20260509140403 59 90 3.0 11.0 0.00 0.00 0.00 71 1010.6
20260509135901 59 134 4.0 8.0 0.00 0.00 0.00 71 1010.7
20260509135358 58 143 7.0 9.0 0.00 0.00 0.00 72 1010.8
20260509134855 58 212 0.0 10.0 0.00 0.00 0.00 72 1010.6
20260509134353 58 228 2.0 7.0 0.00 0.00 0.00 72 1010.8
20260509133849 58 98 1.0 5.0 0.00 0.00 0.00 72 1010.8
20260509133346 58 85 2.0 5.0 0.00 0.00 0.00 72 1010.5
20260509132845 57 233 2.0 5.0 0.00 0.00 0.00 73 1010.8
20260509132343 57 98 3.0 3.0 0.00 0.00 0.00 73 1010.7
20260509131839 57 237 3.0 5.0 0.00 0.00 0.00 73 1011.0
20260509131336 57 135 3.0 7.0 0.00 0.00 0.00 73 1010.9
20260509130833 57 121 2.0 5.0 0.00 0.00 0.00 73 1010.9
20260509130328 56 132 2.0 4.0 0.00 0.00 0.00 72 1011.0
20260509125825 56 130 4.0 7.0 0.00 0.00 0.00 72 1011.0
20260509125322 56 116 5.0 6.0 0.00 0.00 0.00 72 1010.9
20260509124818 56 183 0.0 4.0 0.00 0.00 0.00 71 1011.0
20260509124315 56 141 3.0 4.0 0.00 0.00 0.00 72 1011.1
20260509123813 56 130 3.0 3.0 0.00 0.00 0.00 72 1010.9
20260509123310 55 180 2.0 9.0 0.00 0.00 0.00 71 1011.1
20260509122806 55 195 1.0 4.0 0.00 0.00 0.00 71 1011.1
20260509122306 55 134 5.0 7.0 0.00 0.00 0.00 71 1011.1
20260509121800 55 151 1.0 5.0 0.00 0.00 0.00 72 1011.2
20260509121257 55 141 3.0 4.0 0.00 0.00 0.00 71 1011.3
20260509120755 55 111 3.0 4.0 0.00 0.00 0.00 71 1010.9
20260509120253 54 192 0.0 6.0 0.00 0.00 0.00 71 1010.9
20260509115751 54 233 2.0 8.0 0.00 0.00 0.00 71 1011.0
20260509115247 54 139 2.0 7.0 0.00 0.00 0.00 72 1011.0
20260509114745 54 225 5.0 8.0 0.00 0.00 0.00 71 1011.0
20260509114244 54 255 0.0 4.0 0.00 0.00 0.00 73 1011.0
20260509113742 53 184 2.0 3.0 0.00 0.00 0.00 73 1011.0
20260509113239 53 144 5.0 6.0 0.00 0.00 0.00 73 1011.0
20260509112736 53 115 4.0 4.0 0.00 0.00 0.00 73 1011.1
20260509112233 53 180 0.0 3.0 0.00 0.00 0.00 74 1011.1
20260509111730 52 135 4.0 5.0 0.00 0.00 0.00 74 1011.1
20260509111226 52 127 0.0 3.0 0.00 0.00 0.00 74 1011.1
20260509110724 52 146 3.0 5.0 0.00 0.00 0.00 74 1011.0
20260509110220 52 140 3.0 6.0 0.00 0.00 0.00 74 1011.2
20260509105719 52 117 1.0 3.0 0.00 0.00 0.00 74 1011.1
20260509105216 51 117 3.0 3.0 0.00 0.00 0.00 74 1011.0
20260509104713 51 152 2.0 4.0 0.00 0.00 0.00 74 1011.1
20260509104210 51 157 0.0 4.0 0.00 0.00 0.00 74 1011.1
20260509103708 51 96 0.0 4.0 0.00 0.00 0.00 74 1010.9
20260509103205 51 113 3.0 6.0 0.00 0.00 0.00 74 1011.0
20260509102703 51 238 3.0 3.0 0.00 0.00 0.00 73 1011.0
20260509102200 51 105 2.0 3.0 0.00 0.00 0.00 73 1011.2
20260509101656 51 169 1.0 6.0 0.00 0.00 0.00 72 1010.9
20260509101153 51 82 0.0 5.0 0.00 0.00 0.00 72 1010.8
20260509100650 51 74 2.0 5.0 0.00 0.00 0.00 72 1010.8
20260509100147 51 116 4.0 5.0 0.00 0.00 0.00 72 1010.9
20260509095644 51 252 2.0 7.0 0.00 0.00 0.00 72 1010.9
20260509095141 51 248 0.0 4.0 0.00 0.00 0.00 73 1011.0
20260509094637 51 249 1.0 3.0 0.00 0.00 0.00 73 1010.9
20260509094134 51 235 2.0 3.0 0.00 0.00 0.00 74 1010.8
20260509093633 51 225 2.0 3.0 0.00 0.00 0.00 74 1010.8
20260509093130 51 209 1.0 3.0 0.00 0.00 0.00 73 1010.9
20260509092627 51 237 3.0 4.0 0.00 0.00 0.00 75 1010.8
20260509092126 50 246 3.0 5.0 0.00 0.00 0.00 77 1011.0
20260509091624 50 232 2.0 3.0 0.00 0.00 0.00 79 1010.9
20260509091119 50 206 2.0 3.0 0.00 0.00 0.00 80 1010.7
20260509090617 49 258 2.0 3.0 0.00 0.00 0.00 80 1011.2
20260509090115 49 234 0.0 3.0 0.00 0.00 0.00 80 1011.0
20260509085612 49 248 2.0 3.0 0.00 0.00 0.00 81 1011.1
20260509085108 49 220 0.0 2.0 0.00 0.00 0.00 81 1011.2
20260509084605 48 264 1.0 2.0 0.00 0.00 0.00 80 1011.0
20260509084102 49 255 1.0 3.0 0.00 0.00 0.00 80 1010.9
20260509083559 49 215 0.0 3.0 0.00 0.00 0.00 80 1011.2
20260509083055 48 172 0.0 2.0 0.00 0.00 0.00 79 1011.1
20260509082553 49 195 0.0 2.0 0.00 0.00 0.00 78 1011.3
20260509082050 49 114 1.0 2.0 0.00 0.00 0.00 78 1011.0
20260509081547 49 120 1.0 1.0 0.00 0.00 0.00 77 1011.2
20260509081044 49 203 1.0 1.0 0.00 0.00 0.00 76 1011.2
20260509080542 49 165 0.0 0.0 0.00 0.00 0.00 76 1011.1
20260509080040 49 120 1.0 2.0 0.00 0.00 0.00 76 1011.3
20260509075537 49 216 2.0 2.0 0.00 0.00 0.00 75 1011.3
20260509075035 49 216 2.0 2.0 0.00 0.00 0.00 75 1011.2
20260509074532 50 209 0.0 2.0 0.00 0.00 0.00 74 1011.3
20260509074028 50 195 0.0 1.0 0.00 0.00 0.00 74 1011.3
20260509073525 50 209 0.0 1.0 0.00 0.00 0.00 74 1011.4
20260509073021 50 173 1.0 2.0 0.00 0.00 0.00 74 1011.5
20260509072518 50 120 0.0 2.0 0.00 0.00 0.00 74 1011.3
20260509072015 50 254 0.0 3.0 0.00 0.00 0.00 74 1011.4
20260509071511 50 251 1.0 2.0 0.00 0.00 0.00 73 1011.2
20260509071009 50 214 2.0 2.0 0.00 0.00 0.00 72 1011.3
20260509070506 51 206 0.0 3.0 0.00 0.00 0.00 72 1011.5
20260509070002 51 240 1.0 3.0 0.00 0.00 0.00 73 1011.7
20260509065457 51 235 2.0 3.0 0.00 0.00 0.00 73 1011.8
20260509064954 50 236 2.0 2.0 0.00 0.00 0.00 74 1011.8
20260509064452 50 237 1.0 2.0 0.00 0.00 0.00 74 1011.8
20260509063950 50 212 1.0 2.0 0.00 0.00 0.00 73 1011.7
20260509063445 51 203 1.0 2.0 0.00 0.00 0.00 72 1011.7
20260509062942 51 234 1.0 1.0 0.00 0.00 0.00 70 1011.6
20260509062439 52 195 0.0 3.0 0.00 0.00 0.00 68 1011.7
20260509061937 51 188 0.0 1.0 0.00 0.00 0.00 68 1011.9
20260509061434 52 203 0.0 2.0 0.00 0.00 0.00 67 1011.9
20260509060931 52 254 0.0 1.0 0.00 0.00 0.00 67 1012.2
20260509060429 53 240 0.0 2.0 0.00 0.00 0.00 66 1011.9
20260509055923 54 229 2.0 2.0 0.00 0.00 0.00 64 1012.1
20260509055419 54 90 1.0 3.0 0.00 0.00 0.00 62 1012.0